TenaciousA's sites:

title views votes rating creation
?Zoidberg! 10,226 125 (3.86)  2005-07-29
?I believe in Bilbo Baggins 5,288 59 (3.59)  2005-07-30
?Dr Zoidberg Fails at Life 15,194 133 (3.66)  2005-07-31
?Marty McFly Bookstore Crash 22,961 252 (3.88)  2005-08-01
?Viggo's Drink of Choice 5,650 110 (3.69)  2005-08-03
?Calamari Damacy 5,305 69 (3.74)  2005-08-14
?Metallica in Doom 12,073 50 (3.66)  2005-09-12
?Conan summons a Conan Elemental: an artists con... 3,297 29 (3.76)  2005-10-04
?In the midnight hour cry... 6,736 126 (3.98)  2005-10-14
?(nsfw) Inward Singing is Serious Business (NSFW) 21,297 62 (3.79)  2005-10-19
?Brian Peppers had SEVERAL weaknesses, not the... 14,064 107 (3.82)  2005-10-23
?(nsfw) Goatse's Surprise! 4,201 29 (3.83)  2005-11-05
?(nsfw) Harry Potter: Welcome to Hogwarts! 12,120 62 (4.03)  2005-11-25
?OMG, Secret Nazi Coca Cola Robot ?!?! 5,022 34 (3.76)  2005-11-27
?(nsfw) A message to downvoters (NSFW) 29,056 272 (4.00)  2005-11-30
?OMG! Stephen Hawking thinks I have Spyware! 3,505 43 (3.72)  2005-12-06
?Arnold to Tookie: 4,566 35 (3.69)  2005-12-13
?N*gg* addresses congress 17,411 440 (4.22)  2005-12-15
?From the makers of Gay Fuel: 7,926 132 (3.97)  2005-12-18
?Resident Evil 4 pretty much is Temple of Doom (up... 35,164 451 (4.12)  2005-12-23
?Star wars: Wedge: whoo-ahhh that got im'!! 4,524 36 (3.69)  2005-12-24
?Clumsy Vader Slips Up Again 47,176 891 (4.23)  2006-01-23
?United Nations Secretary-Genaral: Kofi... 3,814 122 (4.03)  2006-01-31
?(nsfw) (NSFW) Star Wars: Mace Windu uncenso... 270,296 2,360 (4.49)  2006-02-06
?SHOP VAC! 5,363 175 (4.03)  2006-02-07
?One of C3PO's many languages 2,225 33 (3.88)  2006-02-08
?Terminator 3: Bonus Round! 2,495 27 (3.67)  2006-02-20
?Rage against the Machine: Pokemon! 7,194 45 (3.64)  2006-02-22
?(nsfw) (NSFW) Rage Against the Machine Dew Ar... 18,917 85 (3.94)  2006-02-26
?A Warning to Sunbathers 2,532 31 (3.84)  2006-03-08
?That's Smee in the corner! 42,627 580 (3.86)  2006-03-09
?High Wood! 1,849 26 (3.96)  2006-03-09
?Marathon Handicap 1,520 40 (3.93)  2006-03-12
?Lucy in the Sky With Diamonds!! 2,601 34 (4.12)  2006-03-19
?Move Squeak! 1,286 42 (3.40)  2006-03-21
?Ello! LOL 1,463 19 (3.95)  2006-03-22
?FREEDOM!!! 2,235 42 (3.95)  2006-03-27
?Who will find Han Solo? (wait for sound) 4,205 26 (3.81)  2006-04-02
?You Cannot Defeat Reznor! 1,430 38 (3.39)  2006-04-03
?Bombtrack! 1,449 53 (3.62)  2006-04-04
?Bad Dates 1,622 34 (3.97)  2006-04-08
?Omni-temporal Conan enslaves us all! 14,917 428 (4.24)  2006-04-10
?Interested in Yao 839 11 (3.36)  2006-05-04
?Everyone has Eggs! 1,191 14 (4.29)  2006-05-07
?My Best Man's Marriage Advice 5,949 25 (3.84)  2006-05-18
?NEDRY 3.0 4,778 64 (3.97)  2006-05-21
?This Wall DOES have a weakness! 4,030 67 (4.07)  2006-05-24
?Tenacious D: Demon Exterminator Noobs 9,943 170 (4.01)  2006-05-28
?Send 'em to the 7th level! 3,265 145 (3.88)  2006-05-31
?Pig Time 2,003 18 (3.83)  2006-07-15
?President Bush's exit strategy for Iraq! 2,282 28 (3.71)  2006-07-17
?Quit Playin Games With My Heart! 1,976 26 (4.00)  2006-07-17
?The Incredible Exploits of www.allaboutscience.org 7,693 405 (4.04)  2006-08-09
?E 876 12 (3.67)  2006-09-20
?Lye! 1,346 27 (3.19)  2006-10-30
?(nsfw) A Clockwork Whorange (NSFW) 24,551 132 (3.87)  2006-11-30
?Van Halen's Corporate Sponsor 1,513 6 (3.50)  2006-12-13
?300TMND: This is... a Big Kahuna Burger! 24,835 500 (4.05)  2007-03-18
?FORE! 978 5 (3.20)  2007-03-19
?What does it tell you? 605 6 (3.67)  2007-03-27
?(nsfw) The Size Of Our World - New Scale Item! 14,079 325 (4.24)  2007-03-31
?The Mad Cow Says: 1,637 18 (3.89)  2007-04-20
?Apu views a typical YTMND 8,818 335 (4.33)  2007-05-24
?He Chose Poorly 25,349 324 (3.73)  2007-08-05
?Dont Tase Christopher Lloyd! 6,965 132 (2.92)  2007-09-21
?(nsfw) Some people have no tolerance for dramas 1,979 38 (2.53)  2007-09-26
?Ooo! Watch the puppets Danson! 10,819 234 (4.02)  2007-09-27
?I know that laugh 8,463 177 (3.85)  2007-10-09
?Eddie Watches Mir-cats 2,106 44 (3.32)  2007-10-22
?Sacrilegious Operation 5,016 62 (3.53)  2007-11-07
?The Lamentations of Uncle Rico 3,425 88 (3.80)  2007-11-28
?Any one else with a comment? 11,178 487 (4.20)  2007-12-04
?Jeffrey Jones Offers the Blessing 5,575 105 (3.92)  2007-12-05
?Who the Hell are you?! 4,663 55 (3.85)  2007-12-05
?Real Letter from Gul Madred 10,042 356 (4.13)  2007-12-17
?The Epic Debate Rages On 4,500 103 (3.93)  2007-12-18
?Vader gets a faulty gift 3,597 105 (3.71)  2007-12-21
?Why you stuck up, half witted, Scruffy looking, ne... 5,005 127 (3.87)  2008-01-05
?How Infamous Banditios Answer the Phone 1,864 35 (3.69)  2008-01-29
?Harry Potter 1 (Special Abridged Edition) 7,594 221 (3.96)  2008-01-30
?2:00 AM at the Larson residence 3,187 111 (3.86)  2008-02-06
?Richard Dawkins: Sneak Attack 10,068 274 (4.06)  2008-02-14
?aka Constipation 8,583 280 (4.03)  2008-04-06
?WAKE UP DR. JONES!!! 2,821 43 (3.30)  2008-04-20
?ITMGKBIGMAMMATISHMFCIAHSWSA5 2,174 56 (3.89)  2008-04-28
?A scenic tour of Istanbul 4,452 90 (3.84)  2008-05-01
?How is this pencil sharpener different from others? 2,299 50 (3.36)  2008-05-09
?HAY! WEIGHT! 502 4 (3.00)  2008-07-09
?Rejected TV Show Theme Songs #6 1,215 3 (3.67)  2008-07-17
?How to do cold reading with Sylvia Browne 22,405 447 (4.46)  2008-08-11
?Downsizing at Initech 1,172 9 (3.78)  2008-08-14
?Palin's Views on McCain 6,229 85 (3.80)  2008-10-06
?BIG JACK! 1,755 7 (2.86)  2009-03-03